Date,TemperatureHighF,TemperatureAvgF,TemperatureLowF,DewpointHighF,DewpointAvgF,DewpointLowF,HumidityHigh,HumidityAvg,HumidityLow,PressureMaxIn,PressureMinIn,WindSpeedMaxMPH,WindSpeedAvgMPH,GustSpeedMaxMPH,PrecipitationSumIn
2013-1-1,21.0,13.4,5.0,19.0,11.4,1.0,99,92,86,0.00,40.00,17,8,21,0.00
2013-1-2,31.0,21.8,4.0,28.0,20.7,3.0,99,95,84,0.00,40.00,19,8,25,0.00
2013-1-3,26.0,13.0,4.0,25.0,10.7,1.0,97,90,83,0.00,40.00,23,10,28,0.00
2013-1-4,28.0,14.3,3.0,16.0,10.2,1.0,97,85,55,0.00,40.00,14,5,16,0.00
2013-1-5,27.0,12.8,-1.0,21.0,10.9,-2.0,97,92,77,0.00,40.00,28,11,34,0.00
2013-1-6,24.0,14.2,2.0,19.0,12.1,1.0,97,91,67,0.00,40.00,29,8,33,0.00
2013-1-7,39.0,24.8,11.0,28.0,21.3,10.0,99,87,59,0.00,40.00,29,5,33,0.00
2013-1-8,30.0,21.8,8.0,28.0,21.2,7.0,99,98,93,0.00,40.00,17,8,21,0.00
2013-1-9,38.0,30.1,23.0,32.0,27.5,23.0,99,91,72,0.00,40.00,27,11,31,0.00
2013-1-10,34.0,31.6,26.0,34.0,29.3,23.0,99,92,74,0.00,40.00,25,15,29,0.00
2013-1-11,36.0,31.9,20.0,36.0,31.6,16.0,99,98,89,0.00,40.00,27,15,34,0.00
2013-1-12,19.0,9.6,3.0,16.0,2.7,-2.0,88,73,63,0.00,40.00,31,18,38,0.00
2013-1-13,12.0,6.3,3.0,3.0,-0.3,-4.0,87,74,61,0.00,40.00,19,10,22,0.00
2013-1-14,23.0,12.1,2.0,14.0,7.0,0.0,92,81,62,0.00,40.00,17,6,18,0.00
2013-1-15,29.0,17.3,6.0,18.0,9.1,3.0,91,72,44,0.00,40.00,20,11,26,0.00
2013-1-16,41.0,28.0,12.0,34.0,22.4,1.0,99,80,54,0.00,40.00,23,14,30,0.00
2013-1-17,32.0,22.2,11.0,27.0,16.9,5.0,97,79,66,0.00,40.00,17,6,26,0.00
2013-1-18,45.0,36.0,25.0,32.0,28.4,25.0,99,76,47,0.00,40.00,18,9,23,0.00
2013-1-19,41.0,28.3,6.0,34.0,22.5,0.0,90,78,55,0.00,40.00,38,18,49,0.00
2013-1-20,10.0,5.4,-1.0,7.0,0.9,-8.0,90,81,74,0.00,40.00,25,11,35,0.00
2013-1-21,3.0,-3.5,-9.0,-2.0,-8.9,-13.0,84,77,72,0.00,40.00,26,13,35,0.00
2013-1-22,15.0,7.9,-1.0,10.0,2.4,-4.0,88,78,59,0.00,40.00,17,6,21,0.00
2013-1-23,16.0,7.7,-5.0,12.0,3.3,-13.0,95,82,66,0.00,40.00,23,11,28,0.00
2013-1-24,15.0,3.8,-6.0,9.0,-2.6,-13.0,77,74,71,0.00,40.00,25,14,30,0.00
2013-1-25,26.0,13.5,5.0,23.0,8.5,-0.0,93,81,62,0.00,40.00,25,11,30,0.00
2013-1-26,33.0,17.5,3.0,25.0,11.6,0.0,85,77,68,0.00,40.00,23,13,27,0.00
2013-1-27,34.0,31.6,30.0,34.0,28.0,23.0,99,87,76,0.00,40.00,24,15,29,0.01
2013-1-28,35.0,33.6,32.0,34.0,33.3,32.0,99,99,99,0.00,40.00,12,5,16,0.01
2013-1-29,35.0,29.7,22.0,32.0,27.3,18.0,99,91,75,0.00,40.00,27,14,37,0.00
2013-1-30,22.0,13.9,0.0,19.0,8.5,-6.0,87,78,74,0.00,40.00,31,22,40,0.00
2013-1-31,0.0,-5.3,-8.0,-6.0,-12.3,-15.0,76,71,67,0.00,40.00,34,21,39,0.00
2013-2-1,18.0,4.9,-9.0,12.0,-1.1,-15.0,87,76,66,0.00,40.00,20,9,23,0.00
2013-2-2,34.0,19.3,11.0,32.0,15.1,7.0,97,83,69,0.00,40.00,38,12,50,0.00
2013-2-3,33.0,20.5,7.0,27.0,15.8,5.0,93,82,63,0.00,40.00,23,10,29,0.00
2013-2-4,22.0,16.7,9.0,19.0,12.7,5.0,95,84,66,0.00,40.00,20,10,24,0.00
2013-2-5,37.0,28.5,20.0,30.0,25.4,19.0,97,89,75,0.00,40.00,24,10,29,0.00
2013-2-6,42.0,32.8,22.0,34.0,29.7,21.0,98,88,68,0.00,40.00,24,10,30,0.00
2013-2-7,34.0,26.0,22.0,34.0,24.7,21.0,99,95,90,0.00,40.00,18,13,23,0.00
2013-2-8,31.0,23.8,20.0,25.0,21.9,19.0,99,93,77,0.00,40.00,24,13,30,0.00
2013-2-9,43.0,35.0,25.0,34.0,31.3,25.0,99,87,65,0.00,40.00,28,17,34,0.00
2013-2-10,34.0,30.6,26.0,34.0,29.6,25.0,99,97,89,0.00,40.00,30,19,37,0.01
2013-2-11,27.0,22.3,20.0,25.0,18.9,16.0,95,86,78,0.00,40.00,32,20,44,0.00
2013-2-12,34.0,24.1,17.0,23.0,19.2,16.0,95,83,58,0.00,40.00,15,8,19,0.00
2013-2-13,41.0,31.7,18.0,34.0,27.8,18.0,99,86,69,0.00,40.00,20,10,24,0.00
2013-2-14,35.0,24.7,11.0,32.0,20.6,7.0,99,84,59,0.00,40.00,26,16,33,0.00
2013-2-15,20.0,13.4,9.0,14.0,9.4,5.0,93,84,72,0.00,40.00,13,6,17,0.00
2013-2-16,35.0,21.7,8.0,28.0,18.6,7.0,98,88,65,0.00,40.00,12,7,15,0.00
2013-2-17,43.0,32.3,21.0,34.0,27.8,21.0,99,84,65,0.00,40.00,26,16,34,0.00
2013-2-18,35.0,22.9,8.0,34.0,19.7,3.0,95,86,76,0.00,40.00,35,24,44,0.00
2013-2-19,9.0,2.7,-3.0,5.0,-2.7,-8.0,86,78,71,0.00,40.00,32,20,39,0.00
2013-2-20,22.0,8.0,-5.0,10.0,0.7,-9.0,83,72,51,0.00,40.00,15,9,20,0.00
2013-2-21,22.0,16.1,11.0,16.0,11.9,9.0,99,84,60,0.00,40.00,20,13,28,0.00
2013-2-22,22.0,17.5,10.0,21.0,16.7,9.0,99,96,89,0.00,40.00,17,11,23,0.00
2013-2-23,27.0,10.3,-7.0,23.0,8.7,-8.0,97,93,81,0.00,40.00,9,3,11,0.00
2013-2-24,27.0,20.1,6.0,27.0,19.1,5.0,99,97,90,0.00,40.00,9,4,12,0.00
2013-2-25,27.0,24.6,19.0,27.0,23.7,19.0,99,96,88,0.00,40.00,9,4,13,0.00
2013-2-26,30.0,23.6,18.0,28.0,22.8,18.0,99,97,90,0.00,40.00,19,11,24,0.00
2013-2-27,33.0,25.3,19.0,25.0,20.4,16.0,98,83,62,0.00,40.00,28,19,35,0.00
2013-2-28,26.0,23.3,18.0,23.0,21.4,18.0,98,93,85,0.00,40.00,19,12,26,0.00
2013-3-1,25.0,20.1,13.0,21.0,16.9,10.0,95,87,74,0.00,40.00,16,10,20,0.00
2013-3-2,28.0,17.5,5.0,23.0,14.7,3.0,98,90,75,0.00,40.00,17,7,20,0.00
2013-3-3,34.0,27.4,20.0,30.0,24.6,19.0,98,91,78,0.00,40.00,26,17,34,0.00
2013-3-4,31.0,28.7,27.0,30.0,27.6,21.0,99,97,72,0.00,40.00,26,11,30,0.00
2013-3-5,27.0,24.0,21.0,25.0,21.0,18.0,99,89,80,0.00,40.00,32,18,41,0.00
2013-3-6,24.0,20.0,17.0,21.0,18.2,16.0,98,92,85,0.00,40.00,14,8,19,0.00
2013-3-7,36.0,28.3,18.0,32.0,25.6,18.0,99,91,75,0.00,40.00,27,17,31,0.00
2013-3-8,45.0,34.0,23.0,39.0,31.4,23.0,99,91,73,0.00,40.00,14,8,19,0.00
2013-3-9,38.0,34.7,31.0,37.0,34.3,30.0,99,99,96,0.00,40.00,29,13,39,0.01
2013-3-10,31.0,24.5,20.0,30.0,22.1,18.0,96,90,86,0.00,40.00,34,25,42,0.01
2013-3-11,30.0,22.9,14.0,23.0,17.6,12.0,91,79,58,0.00,40.00,22,12,28,0.00
2013-3-12,29.0,25.5,20.0,27.0,21.6,18.0,96,85,68,0.00,40.00,29,20,40,0.00
2013-3-13,35.0,24.4,13.0,27.0,19.3,12.0,96,81,59,0.00,40.00,19,9,24,0.00
2013-3-14,50.0,37.7,27.0,41.0,32.7,25.0,99,82,66,0.00,40.00,17,7,20,0.00
2013-3-15,39.0,35.2,32.0,36.0,34.4,32.0,99,95,86,0.00,40.00,19,10,24,0.00
2013-3-16,31.0,23.4,17.0,30.0,18.8,10.0,99,82,69,0.00,40.00,23,15,30,0.00
2013-3-17,32.0,22.0,12.0,32.0,17.3,9.0,99,82,70,0.00,40.00,29,17,40,0.00
2013-3-18,33.0,19.5,13.0,32.0,14.1,7.0,99,79,66,0.00,40.00,37,25,45,0.00
2013-3-19,27.0,15.9,6.0,18.0,8.3,1.0,81,72,54,0.00,40.00,26,12,32,0.00
2013-3-20,24.0,14.5,7.0,9.0,6.6,3.0,87,71,49,0.00,40.00,22,14,27,0.00
2013-3-21,34.0,19.4,5.0,21.0,11.1,3.0,93,72,46,0.00,40.00,12,6,17,0.00
2013-3-22,34.0,24.7,14.0,25.0,18.4,14.0,97,79,52,0.00,40.00,11,5,14,0.00
2013-3-23,32.0,27.8,25.0,27.0,24.4,23.0,96,86,73,0.00,40.00,17,8,21,0.00
2013-3-24,29.0,24.9,21.0,27.0,21.8,19.0,98,88,75,0.00,40.00,24,15,31,0.00
2013-3-25,28.0,24.7,18.0,23.0,20.9,14.0,97,86,73,0.00,40.00,24,18,29,0.00
2013-3-26,38.0,24.4,9.0,25.0,16.9,9.0,98,76,44,0.00,40.00,12,5,16,0.00
2013-3-27,46.0,34.2,23.0,32.0,26.3,21.0,97,75,45,0.00,40.00,19,12,24,0.00
2013-3-28,58.0,41.8,28.0,37.0,32.9,28.0,99,75,37,0.00,40.00,17,13,21,0.00
2013-3-29,63.0,48.7,31.0,43.0,37.8,30.0,99,70,40,0.00,40.00,24,14,30,0.00
2013-3-30,58.0,49.3,36.0,46.0,42.8,36.0,99,80,49,0.00,40.00,25,15,34,0.00
2013-3-31,40.0,33.3,24.0,34.0,24.8,16.0,99,73,45,0.00,40.00,24,16,31,0.00
2013-4-1,36.0,26.1,16.0,21.0,16.1,14.0,95,68,39,0.00,40.00,19,10,23,0.00
2013-4-2,47.0,33.2,18.0,32.0,21.4,18.0,99,68,34,0.00,40.00,12,4,17,0.00
2013-4-3,62.0,41.4,26.0,32.0,28.4,25.0,97,66,32,0.00,40.00,29,18,40,0.00
2013-4-4,52.0,42.4,31.0,36.0,30.0,28.0,91,64,41,0.00,40.00,20,13,26,0.00
2013-4-5,56.0,39.3,28.0,41.0,30.3,25.0,91,72,46,0.00,40.00,34,18,40,0.00
2013-4-6,60.0,48.9,35.0,45.0,41.5,34.0,99,77,46,0.00,40.00,27,17,32,0.00
2013-4-7,52.0,42.0,31.0,46.0,37.6,30.0,99,86,59,0.00,40.00,20,10,28,0.01
2013-4-8,53.0,44.0,36.0,50.0,43.2,36.0,99,98,91,0.00,40.00,28,15,38,0.00
2013-4-9,36.0,29.4,25.0,36.0,28.7,25.0,99,99,99,0.00,40.00,29,7,40,0.23
2013-4-10,31.0,30.2,29.0,30.0,29.6,28.0,99,99,99,0.00,40.00,0,-10,0,0.00
2013-4-11,35.0,32.1,29.0,34.0,31.6,28.0,99,99,96,0.00,40.00,16,8,19,0.00
2013-4-12,32.0,29.9,27.0,30.0,28.3,27.0,99,94,87,0.00,40.00,18,14,24,0.00
2013-4-13,37.0,30.4,20.0,32.0,28.6,19.0,99,94,80,0.00,40.00,20,10,26,0.00
2013-4-14,39.0,35.6,33.0,37.0,33.9,30.0,99,94,84,0.00,40.00,28,21,37,0.01
2013-4-15,37.0,33.0,29.0,32.0,29.7,25.0,98,87,77,0.00,40.00,34,20,41,0.00
2013-4-16,40.0,33.5,28.0,32.0,29.5,28.0,99,87,67,0.00,40.00,16,10,19,0.00
2013-4-17,36.0,33.4,32.0,36.0,32.9,30.0,99,97,93,0.00,40.00,26,15,32,0.00
2013-4-18,33.0,31.0,28.0,32.0,30.2,27.0,99,99,99,0.00,40.00,33,25,40,0.00
2013-4-19,35.0,28.4,22.0,27.0,24.0,19.0,99,84,66,0.00,40.00,28,20,34,0.00
2013-4-20,38.0,28.9,16.0,36.0,25.5,16.0,99,87,63,0.00,40.00,18,7,27,0.00
2013-4-21,52.0,40.8,35.0,50.0,38.8,32.0,99,92,72,0.00,40.00,22,15,29,0.00
2013-4-22,36.0,30.8,27.0,36.0,30.2,27.0,99,99,98,0.00,40.00,27,19,35,0.00
2013-4-23,33.0,26.4,18.0,28.0,23.2,18.0,99,88,68,0.00,40.00,23,13,27,0.00
2013-4-24,46.0,32.9,19.0,39.0,30.5,19.0,99,92,75,0.00,40.00,30,12,35,0.00
2013-4-25,63.0,47.1,24.0,45.0,37.8,23.0,99,72,43,0.00,40.00,29,14,41,0.00
2013-4-26,69.0,55.3,41.0,46.0,41.4,34.0,95,64,29,0.00,40.00,21,9,27,0.00
2013-4-27,77.0,59.1,32.0,50.0,39.2,32.0,99,56,22,0.00,40.00,18,7,22,0.00
2013-4-28,87.0,64.5,50.0,61.0,51.3,43.0,99,67,25,0.00,40.00,32,17,52,0.00
2013-4-29,79.0,60.6,43.0,54.0,44.5,32.0,94,58,33,0.00,40.00,19,12,26,0.00
2013-4-30,66.0,59.3,52.0,59.0,43.5,30.0,95,60,27,0.00,40.00,27,16,32,0.00
2013-5-1,52.0,40.3,33.0,45.0,36.1,32.0,99,84,61,0.00,40.00,23,16,29,0.01
2013-5-2,49.0,39.3,32.0,34.0,28.4,21.0,92,68,33,0.00,40.00,30,19,42,0.01
2013-5-3,51.0,38.7,25.0,32.0,27.2,23.0,99,67,36,0.00,40.00,24,15,34,0.00
2013-5-4,40.0,37.7,36.0,39.0,36.5,30.0,99,95,68,0.00,40.00,25,17,30,0.01
2013-5-5,50.0,47.5,40.0,50.0,46.5,39.0,99,97,94,0.00,40.00,12,7,14,0.00
2013-5-6,64.0,53.9,45.0,52.0,48.9,45.0,99,84,60,0.00,40.00,9,3,11,0.00
2013-5-7,74.0,59.6,36.0,57.0,48.6,36.0,99,72,34,0.00,40.00,26,8,32,0.00
2013-5-8,62.0,57.4,54.0,61.0,56.6,54.0,99,98,93,0.00,40.00,13,8,18,0.01
2013-5-9,62.0,56.8,49.0,59.0,55.5,48.0,99,96,89,0.00,40.00,27,17,34,0.01
2013-5-10,68.0,53.2,37.0,50.0,40.1,-99.9,98,68,34,0.00,40.00,29,9,40,0.00
2013-5-11,55.0,46.4,38.0,46.0,28.9,-99.9,91,55,27,0.00,40.00,34,18,39,0.00
2013-5-12,63.0,46.5,27.0,36.0,26.2,23.0,94,51,24,0.00,40.00,12,4,18,0.00
2013-5-13,88.0,65.2,45.0,55.0,45.2,30.0,67,49,31,0.00,40.00,26,15,36,0.00
2013-5-14,95.0,75.8,54.0,59.0,50.5,34.0,89,47,21,0.00,40.00,30,14,40,0.00
2013-5-15,80.0,66.3,54.0,55.0,50.8,43.0,84,59,40,0.00,40.00,17,6,22,0.00
2013-5-16,83.0,60.8,48.0,63.0,34.5,-99.9,99,69,26,0.00,40.00,22,8,29,0.01
2013-5-17,84.0,71.1,59.0,73.0,60.2,-99.9,99,83,55,0.00,40.00,21,14,28,0.01
2013-5-18,83.0,73.6,63.0,72.0,65.9,63.0,98,79,51,0.00,40.00,24,14,30,0.00
2013-5-19,73.0,66.0,63.0,70.0,65.0,63.0,99,97,85,0.00,40.00,32,12,49,0.01
2013-5-20,69.0,62.4,57.0,63.0,58.7,55.0,99,88,71,0.00,40.00,26,15,33,0.00
2013-5-21,62.0,56.4,52.0,59.0,54.7,52.0,99,94,84,0.00,40.00,16,8,20,0.00
2013-5-22,53.0,50.6,47.0,52.0,50.1,46.0,99,98,97,0.00,40.00,22,15,27,0.00
2013-5-23,67.0,56.6,43.0,50.0,43.7,34.0,99,66,29,0.00,40.00,20,12,27,0.00
2013-5-24,69.0,56.9,44.0,59.0,48.8,41.0,92,75,46,0.00,40.00,27,16,33,0.00
2013-5-25,74.0,60.8,52.0,63.0,56.5,52.0,99,86,63,0.00,40.00,28,18,35,0.00
2013-5-26,60.0,53.7,50.0,59.0,53.5,50.0,99,99,99,0.00,40.00,31,15,42,0.04
2013-5-27,65.0,58.8,54.0,63.0,58.2,54.0,99,97,90,0.00,40.00,23,11,27,0.04
2013-5-28,73.0,64.2,56.0,64.0,60.2,55.0,99,87,65,0.00,40.00,14,6,18,0.00
2013-5-29,78.0,69.6,58.0,73.0,67.2,57.0,99,92,73,0.00,40.00,28,17,34,0.01
2013-5-30,76.0,67.0,61.0,68.0,63.9,57.0,99,90,62,0.00,40.00,34,20,42,0.01
2013-5-31,71.0,62.5,55.0,61.0,54.5,50.0,97,75,51,0.00,40.00,30,21,37,0.01
2013-6-1,58.0,54.5,50.0,57.0,52.6,48.0,99,94,81,0.00,40.00,29,19,36,0.00
2013-6-2,71.0,58.1,49.0,50.0,43.4,36.0,98,63,29,0.00,40.00,16,7,22,0.00
2013-6-3,73.0,61.0,44.0,50.0,46.1,43.0,97,61,36,0.00,40.00,33,16,42,0.00
2013-6-4,66.0,60.7,57.0,64.0,58.6,50.0,99,93,64,0.00,40.00,31,11,36,0.02
2013-6-5,63.0,57.4,51.0,57.0,53.3,50.0,99,86,69,0.00,40.00,17,9,24,0.01
2013-6-6,65.0,57.8,52.0,57.0,53.4,50.0,99,85,64,0.00,40.00,16,9,24,0.00
2013-6-7,72.0,60.7,44.0,57.0,49.9,43.0,99,71,44,0.00,40.00,14,4,14,0.00
2013-6-8,58.0,56.0,54.0,57.0,54.0,52.0,99,92,83,0.00,40.00,27,17,32,0.04
2013-7-10,81.0,75.1,62.0,61.0,55.1,50.0,90,51,33,0.00,40.00,10,4,15,0.00
2013-7-11,83.0,71.2,61.0,64.0,59.6,55.0,92,68,47,0.00,40.00,21,12,27,0.00
2013-7-12,89.0,77.7,67.0,72.0,65.4,59.0,79,66,53,0.00,40.00,26,16,34,0.00
2013-7-13,87.0,78.7,71.0,75.0,69.5,64.0,85,73,61,0.00,40.00,18,10,25,0.00
2013-7-14,76.0,72.2,67.0,70.0,66.3,61.0,93,81,71,0.00,40.00,18,7,24,0.01
2013-7-15,85.0,73.8,64.0,70.0,65.5,61.0,96,76,47,0.00,40.00,16,6,21,0.01
2013-7-16,87.0,78.2,69.0,70.0,67.2,64.0,94,71,47,0.00,40.00,16,10,22,0.00
2013-7-17,91.0,80.4,68.0,72.0,68.4,64.0,90,68,49,0.00,40.00,14,8,21,0.00
2013-7-18,92.0,81.8,71.0,72.0,69.1,68.0,88,66,47,0.00,40.00,21,13,31,0.00
2013-7-19,83.0,76.8,67.0,70.0,64.2,55.0,91,66,39,0.00,40.00,16,7,22,0.00
2013-7-22,85.0,78.6,62.0,70.0,64.2,59.0,88,61,47,0.00,40.00,18,12,24,0.00
2013-7-23,75.0,66.3,57.0,59.0,56.5,54.0,94,72,48,0.00,40.00,14,-8,17,0.00
2013-7-24,82.0,67.5,52.0,63.0,56.7,50.0,95,71,42,0.00,40.00,9,3,13,0.00
2013-7-25,82.0,72.1,61.0,70.0,63.7,57.0,91,75,58,0.00,40.00,11,4,13,0.00
2013-7-26,71.0,63.2,55.0,64.0,52.9,46.0,95,70,41,0.00,40.00,24,12,30,0.00
2013-7-27,69.0,56.2,45.0,48.0,44.6,41.0,90,68,38,0.00,40.00,17,-20,23,0.00
2013-7-28,74.0,57.1,41.0,50.0,44.5,39.0,94,67,36,0.00,40.00,11,-11,16,0.00
2013-7-29,74.0,59.0,46.0,57.0,51.1,43.0,94,76,51,0.00,40.00,16,6,21,0.00
2013-7-30,77.0,67.6,62.0,63.0,61.3,57.0,96,79,58,0.00,40.00,12,4,14,0.00
2013-7-31,81.0,68.8,54.0,63.0,58.1,52.0,97,71,43,0.00,40.00,10,4,13,0.00
2013-8-1,86.0,69.0,52.0,66.0,60.1,50.0,95,76,42,0.00,40.00,14,4,32,0.00
2013-8-2,71.0,64.2,55.0,63.0,58.1,54.0,94,80,53,0.00,40.00,11,-24,14,0.00
2013-8-3,77.0,63.4,48.0,57.0,51.3,46.0,96,68,36,0.00,40.00,13,-19,17,0.00
2013-8-4,76.0,65.2,51.0,63.0,54.9,48.0,92,71,47,0.00,40.00,13,-6,18,0.00
2013-8-5,85.0,73.5,63.0,68.0,64.4,57.0,97,75,41,0.00,40.00,14,7,17,0.00
2013-8-6,88.0,74.7,56.0,66.0,61.8,55.0,95,66,41,0.00,40.00,16,7,22,0.00
2013-8-7,79.0,68.5,60.0,61.0,57.5,55.0,95,70,45,0.00,40.00,11,5,14,0.00
2013-8-8,77.0,67.1,61.0,68.0,60.8,54.0,94,80,63,0.00,40.00,14,7,19,0.01
2013-8-9,67.0,61.6,59.0,63.0,58.8,55.0,98,90,72,0.00,40.00,5,-41,7,0.00
2013-8-10,77.0,63.8,52.0,64.0,58.1,50.0,96,82,55,0.00,40.00,9,-22,16,0.01
2013-8-11,78.0,69.0,62.0,64.0,63.3,61.0,98,83,60,0.00,40.00,17,7,21,0.03
2013-8-12,79.0,67.9,55.0,61.0,57.2,55.0,98,72,46,0.00,40.00,11,5,14,0.01
2013-10-27,29.0,29.0,29.0,25.0,25.0,25.0,83,83,83,0.00,40.00,4,4,6,0.00
2013-10-28,-200.0,0.0,200.0,-99.9,-99.9,-99.9,59,59,59,0.00,40.00,15,15,21,0.00
2013-10-30,41.0,41.0,41.0,39.0,39.0,39.0,95,95,95,0.00,40.00,10,10,13,0.00
2013-10-31,42.0,38.5,35.0,37.0,35.5,34.0,96,90,84,0.00,40.00,11,10,17,0.00
2013-11-2,-200.0,0.0,200.0,-99.9,-99.9,-99.9,0,0,100,0.00,40.00,7,7,7,0.00
2013-11-8,29.0,29.0,29.0,23.0,23.0,23.0,79,79,79,0.00,40.00,14,14,18,0.00
2013-11-9,-200.0,0.0,200.0,-99.9,-99.9,-99.9,0,0,100,0.00,40.00,7,7,9,0.00
2013-11-10,39.0,35.0,31.0,30.0,28.5,27.0,87,76,65,0.00,40.00,13,7,16,0.00
2013-11-11,21.0,21.0,21.0,14.0,14.0,14.0,74,74,74,0.00,40.00,30,30,37,0.00
2013-11-13,33.0,33.0,33.0,27.0,27.0,27.0,79,79,79,0.00,40.00,2,2,3,0.00
2013-11-14,31.0,31.0,31.0,28.0,28.0,28.0,91,91,91,0.00,40.00,2,2,2,0.00
2013-12-25,17.0,17.0,17.0,14.0,14.0,14.0,92,92,92,0.00,40.00,9,9,12,0.00
2013-12-28,-200.0,0.0,200.0,-99.9,-99.9,-99.9,0,0,100,0.00,40.00,32,32,42,0.00
2013-12-29,-10.0,-10.0,-10.0,-17.0,-17.0,-17.0,75,75,75,0.00,40.00,1,1,2,0.00
2013-12-31,1.0,1.0,1.0,-4.0,-4.0,-4.0,81,81,81,0.00,40.00,6,6,9,0.00